カタログに戻る

ARIANE 44L DEB

LostHEO
NORAD 27669·DEBRIS·🇫🇷 France

打ち上げ Oct 29, 1991 から Guiana Space Centre

Loading…

次のパス (今後24時間)

TLE

古いSource: Space-Track

元期: Jul 11, 2026, 04:27 UTC

1 27669U 91075E   26192.18585096  .00681942  00000-0  14970-1 0  9996
2 27669   7.8944 102.4007 4543805 101.4984 311.2887  6.53694019342714

AllMySatでARIANE 44L DEBをリアルタイム追跡

Download on the App Store